Theta_e
281 281 282 282 282 282 282 281 281 281 281 280 280 279 279 278 278 278 278 277 276 276 275 274 274 274 273 273 273 272 272 271 272 272 272 272 273 272 272 272 272 272 272 272 272 272 272 273 273 273 272 272 272 272 272 273 273 273 273 273 273 273
281 281 281 281 281 281 281 280 280 279 279 279 279 278 278 277 277 277 276 276 275 275 274 273 273 273 272 272 271 271 271 271 271 271 272 272 272 272 272 272 271 271 271 271 271 271 271 271 271 271 271 270 271 271 271 271 272 271 271 272 273 273
280 280 281 281 281 281 280 279 279 279 278 278 278 277 276 276 276 275 275 275 274 273 272 272 272 271 271 271 271 271 271 271 272 271 271 271 271 271 271 271 271 271 271 270 270 270 269 269 269 269 269 269 269 269 270 270 270 270 270 271 272 272
280 280 280 280 279 279 278 279 279 278 277 277 277 276 276 275 275 274 274 273 273 272 271 271 271 270 270 270 270 270 270 271 271 271 271 270 271 271 270 270 270 270 269 269 268 268 268 268 268 268 268 268 268 268 269 269 269 268 269 269 270 271
280 279 279 279 279 279 278 278 278 277 277 276 276 275 275 275 274 274 273 272 271 270 270 270 270 270 270 269 270 270 270 270 270 270 270 270 270 270 269 269 269 268 268 268 267 267 267 267 267 267 267 267 267 267 267 268 268 267 267 268 268 269
279 279 279 279 278 278 278 278 277 277 276 275 275 274 274 273 272 272 271 270 270 270 269 269 269 269 269 269 269 269 269 269 270 270 269 269 269 268 268 268 268 267 267 267 267 267 267 266 267 267 267 267 267 266 267 267 267 267 267 267 268 268
278 278 279 279 279 278 278 277 276 276 275 274 274 273 272 272 271 270 270 269 268 268 268 268 268 268 268 268 269 269 269 269 269 269 268 268 267 267 267 267 267 266 266 265 265 266 266 266 266 266 267 266 268 267 266 267 267 267 267 267 268 269
278 279 279 279 279 278 277 276 276 275 274 273 273 272 271 270 270 269 268 268 268 268 268 268 268 268 268 268 268 268 268 268 268 267 267 267 266 266 266 265 265 265 265 265 265 265 266 266 266 266 266 267 266 267 267 267 267 267 267 268 268 268
278 278 278 279 278 277 277 275 274 273 273 272 271 271 270 269 269 268 267 267 267 267 267 267 268 268 268 268 268 268 268 267 267 266 266 266 265 264 264 264 264 265 265 265 265 265 266 266 266 266 267 267 267 267 267 267 267 267 268 268 268 269
278 278 278 278 277 276 275 274 273 272 271 270 269 269 268 268 267 266 266 266 266 266 267 267 267 267 267 267 267 267 266 266 266 265 265 265 264 264 264 264 264 264 265 265 265 266 266 266 266 267 267 267 267 267 267 267 268 268 268 269 269 269
278 278 277 277 276 275 274 272 271 270 270 269 268 268 267 267 266 266 265 265 265 266 266 267 267 267 267 266 266 265 265 265 264 264 264 263 263 264 264 264 264 264 265 265 266 266 267 266 266 267 267 267 268 268 269 269 269 269 269 269 269 269
278 277 277 276 275 274 272 271 270 269 268 268 267 267 266 266 265 265 265 265 265 265 266 265 265 265 265 264 264 264 263 263 263 263 262 262 263 263 264 264 265 265 265 265 266 266 266 266 267 268 272 273 270 270 271 271 272 272 272 271 270 270
277 277 276 276 275 274 272 271 269 269 268 267 266 266 266 265 264 264 264 264 265 265 265 265 264 264 263 263 263 262 262 262 262 261 261 262 262 263 264 264 264 265 265 265 265 265 265 266 266 271 273 274 275 273 271 271 272 273 273 273 272 272
277 276 276 276 275 273 271 270 268 268 267 267 266 265 265 264 264 264 264 264 264 264 264 264 263 262 262 261 261 261 261 261 260 261 261 261 262 263 264 264 264 264 265 265 265 265 265 265 269 272 273 274 275 276 273 273 273 273 273 274 274 273
277 277 277 276 274 273 271 269 268 267 267 266 265 265 264 263 263 263 263 263 263 263 263 262 261 260 260 260 260 260 260 260 260 260 261 261 262 263 263 264 264 264 264 264 264 264 265 265 269 272 273 274 276 277 276 273 274 274 274 274 274 274
278 277 277 276 274 273 270 269 268 267 266 265 264 263 263 263 263 262 262 262 262 262 261 260 260 259 259 259 259 259 259 259 259 260 261 262 262 262 262 262 263 263 263 263 263 264 264 265 268 272 274 275 276 277 277 274 274 274 275 275 275 275
278 277 276 274 272 270 268 267 266 265 264 264 263 263 263 262 262 262 262 261 261 261 260 260 259 258 258 259 259 259 259 259 260 260 261 261 262 261 261 262 262 262 262 262 263 263 263 264 270 273 275 275 277 277 277 274 274 274 274 274 274 275
277 276 275 273 270 267 267 265 265 264 263 263 263 262 262 261 260 261 261 260 260 259 259 259 258 258 258 258 258 258 258 259 260 260 260 261 261 261 262 262 262 261 261 262 262 263 263 265 271 273 275 276 277 278 274 273 273 273 273 273 274 274
278 276 273 269 267 266 265 264 263 263 262 261 261 261 261 260 259 260 260 259 259 259 258 258 258 257 257 257 257 257 258 259 259 260 260 260 260 260 260 260 261 261 262 262 262 263 264 265 269 273 275 275 277 276 273 272 272 272 272 273 274 274
276 272 268 267 266 265 264 263 263 262 261 260 260 260 260 259 259 260 259 258 258 258 258 258 257 256 257 257 257 257 258 259 259 259 260 259 259 259 260 260 260 261 262 262 263 264 265 266 270 273 274 275 276 276 272 271 271 271 272 272 273 274
271 268 267 265 264 264 263 262 262 261 260 260 260 260 260 259 259 259 258 258 258 258 257 257 256 256 256 256 257 257 257 258 258 259 259 259 259 259 260 260 260 261 263 264 265 268 268 267 269 272 274 275 276 274 272 272 271 270 271 271 272 274
267 266 265 264 263 263 262 262 262 261 260 260 260 260 260 260 259 259 258 258 258 257 256 256 256 255 255 256 256 257 257 258 258 259 259 259 259 259 259 260 261 261 263 265 266 267 267 267 268 270 274 275 276 276 273 272 271 270 271 271 272 272
267 265 265 264 263 262 262 262 261 260 260 260 260 260 260 260 259 258 257 257 256 256 256 256 255 254 255 256 256 257 257 258 258 258 258 257 258 258 259 259 261 263 264 265 266 267 268 268 268 269 274 274 275 276 275 272 272 272 272 272 272 273
266 264 263 263 262 261 261 262 261 260 260 260 260 260 260 258 258 257 256 255 255 255 254 254 255 255 255 256 256 256 256 257 257 257 257 257 257 257 258 260 262 263 264 265 267 267 267 269 271 269 272 274 275 276 276 273 272 273 273 272 272 272
264 263 262 261 261 261 262 262 261 260 260 260 260 259 258 257 257 256 255 254 253 253 253 253 253 254 255 255 255 255 255 256 256 256 256 256 257 257 259 260 262 263 263 265 266 267 267 268 269 272 270 273 275 276 276 276 275 276 274 272 271 272
263 262 261 261 261 261 262 261 260 260 260 261 259 258 257 256 255 255 253 253 252 252 253 253 253 254 253 253 254 254 254 255 255 256 256 256 257 258 259 261 262 263 264 264 265 266 267 268 268 270 272 271 274 275 276 276 276 276 273 273 272 272
262 261 260 261 260 261 261 261 261 260 260 259 258 257 256 255 253 252 251 251 252 252 252 252 253 253 252 253 253 254 254 254 254 254 255 256 257 258 259 261 261 263 264 264 264 265 266 267 267 268 270 273 274 275 275 275 276 275 276 272 272 273
261 260 260 260 260 260 260 261 261 260 260 258 258 257 255 253 251 251 250 251 251 251 252 253 253 253 254 253 254 253 254 254 254 254 255 256 257 259 259 260 262 264 264 264 264 265 265 266 267 268 268 270 272 272 273 274 274 274 274 274 273 275
260 260 260 259 259 259 260 259 260 260 258 257 257 256 253 251 251 252 251 251 251 252 253 254 254 255 254 253 253 254 254 254 254 254 255 257 258 259 259 261 263 263 263 263 264 265 265 265 267 267 268 269 270 270 270 270 270 272 273 271 271 273
261 260 259 259 259 259 258 258 258 257 257 256 255 253 252 251 252 252 251 251 253 253 253 253 255 254 253 253 252 253 253 254 255 255 257 258 258 258 260 263 263 263 263 263 264 264 264 265 266 267 268 269 269 269 269 269 269 269 270 270 270 270
261 260 260 259 258 258 257 257 256 256 256 255 253 252 251 252 253 252 252 252 253 253 254 253 251 252 252 253 253 253 254 253 254 257 259 261 262 263 264 264 264 264 265 265 264 264 264 265 266 267 272 270 273 270 268 267 268 269 269 271 274 268
261 260 259 258 258 257 257 256 255 255 256 254 253 252 252 252 251 252 252 253 253 253 253 252 251 251 253 252 252 252 254 257 262 262 261 261 266 268 269 269 265 266 266 265 266 266 265 265 267 272 273 273 273 273 273 272 272 272 271 273 272 268
261 260 259 258 257 256 256 255 255 255 254 254 253 252 252 252 252 252 252 252 252 254 253 252 252 252 251 251 252 252 252 253 255 261 264 265 266 266 268 268 269 269 269 267 265 267 271 272 272 273 273 273 273 272 272 271 271 272 272 272 267 264
260 259 258 257 257 256 255 255 255 254 254 253 253 253 252 253 254 253 252 252 253 255 254 254 253 252 251 251 252 251 252 251 251 252 261 266 265 265 266 267 268 268 268 269 268 267 266 270 271 272 272 272 272 271 271 270 269 270 271 271 269 262
260 260 258 257 256 255 255 254 254 254 254 253 253 253 252 252 254 252 252 252 253 254 254 253 253 252 251 250 250 250 251 250 249 249 250 254 262 264 264 265 266 267 267 268 269 269 270 270 271 271 271 271 271 271 270 269 267 269 270 269 263 262
260 259 257 256 256 255 254 254 253 253 253 253 253 252 252 252 253 253 252 252 253 254 253 253 253 252 251 251 251 250 251 250 249 249 250 250 250 252 257 262 263 264 265 266 268 268 270 270 270 270 270 270 270 270 269 267 262 267 268 266 261 261
259 258 257 256 255 255 254 254 253 253 253 252 252 251 250 252 252 252 253 254 254 253 253 254 254 252 250 250 250 252 251 249 249 250 250 249 249 249 250 251 253 257 262 262 263 266 269 269 269 269 269 269 269 268 267 264 256 255 256 258 260 261
258 257 256 255 255 255 254 254 254 253 252 251 250 250 250 251 253 253 254 254 254 253 254 253 251 252 251 252 251 251 249 250 249 249 249 249 249 249 249 250 251 252 257 263 263 266 267 268 268 268 268 267 268 267 265 255 254 254 255 256 258 260
Wind_Speed
14 15 17 15 14 14 14 12 12 10 10 11 11 11 10 9 6 5 4 4 3 3 4 4 4 4 5 4 5 6 7 7 7 8 8 9 10 10 10 12 12 12 12 12 13 13 14 14 13 13 14 14 15 15 16 18 15 17 16 17 15 17
14 15 16 17 18 16 13 13 10 12 11 11 9 8 8 7 7 5 5 4 3 3 3 4 4 4 4 5 6 6 6 7 8 8 9 9 10 10 11 11 12 13 13 12 13 14 14 14 14 14 15 14 14 14 13 15 16 18 18 17 16 14
13 12 12 10 8 8 10 11 13 12 10 11 11 11 9 8 6 5 4 3 3 4 5 4 4 4 4 5 6 6 6 7 7 7 8 9 10 10 11 12 13 13 13 14 14 14 14 14 15 13 13 13 14 14 15 16 16 17 16 16 17 17
10 9 7 7 9 10 12 10 11 12 12 11 10 9 8 8 6 5 4 3 3 4 4 4 4 4 4 6 5 6 6 7 7 8 9 9 10 10 12 13 12 12 13 13 14 14 15 15 15 14 13 14 17 16 13 15 16 17 18 17 18 17
11 11 13 14 15 12 11 12 12 12 11 10 9 9 7 7 5 4 3 3 3 4 3 3 4 4 5 6 5 5 6 7 8 8 9 10 10 10 10 11 12 13 13 14 14 14 14 15 15 14 14 15 16 18 16 17 17 18 18 18 18 18
8 10 13 14 13 13 13 12 11 11 10 9 8 9 8 6 5 4 3 3 4 3 3 4 4 5 5 4 4 6 7 7 8 8 9 9 9 10 10 11 12 13 13 14 15 15 15 15 15 15 15 17 18 17 19 17 18 18 18 18 18 18
13 15 15 15 14 10 10 12 12 10 9 8 8 7 7 6 5 4 4 4 4 4 4 4 4 4 4 4 5 7 8 8 8 8 9 9 10 10 11 11 11 13 13 13 14 15 16 16 17 18 18 16 17 18 18 19 19 18 19 18 17 18
13 11 13 12 13 12 10 11 11 10 9 8 7 8 7 6 5 5 4 4 4 4 4 3 4 3 3 5 5 7 7 8 8 9 9 9 11 11 11 12 12 12 14 14 15 15 16 16 16 18 18 17 16 17 18 18 19 19 18 19 17 18
14 15 13 13 12 12 11 11 12 10 9 8 7 7 7 6 6 5 4 4 4 3 3 3 3 2 3 4 5 6 7 8 9 9 10 9 10 11 12 13 13 12 13 15 15 15 16 17 17 17 18 18 18 19 18 19 19 19 18 17 19 17
13 13 15 14 13 12 11 10 12 11 11 10 8 7 6 5 5 5 5 4 4 3 3 2 2 2 3 4 5 6 7 8 8 9 9 10 11 11 12 13 14 14 12 14 14 15 15 17 18 18 17 18 18 17 19 17 18 19 18 20 19 19
16 16 15 14 13 14 13 12 11 10 9 8 8 7 7 6 6 6 5 5 4 3 2 1 1 2 3 4 5 7 7 8 8 9 10 10 10 10 11 12 13 14 15 14 15 16 16 16 16 14 15 17 19 18 18 19 19 20 20 19 20 18
14 15 15 15 16 16 15 13 12 11 11 9 8 7 7 6 6 6 6 5 4 3 2 1 1 2 3 4 6 7 7 8 9 9 9 10 10 11 11 12 12 13 16 17 15 14 14 15 12 17 27 26 20 21 19 17 17 18 18 18 18 18
14 14 16 17 18 18 14 14 13 11 10 8 9 8 7 6 6 6 6 5 4 3 1 0 1 2 3 4 6 6 8 9 8 8 9 9 10 11 11 11 12 14 14 15 17 17 15 13 14 28 29 30 31 23 20 18 18 18 20 17 20 17
16 18 20 19 18 17 14 15 13 11 10 9 9 8 7 7 7 7 6 5 4 3 2 1 1 3 4 5 6 7 7 7 7 8 8 8 9 9 9 11 13 13 14 14 15 16 16 16 22 30 30 31 31 28 22 18 16 17 15 19 17 18
20 21 20 17 17 17 14 13 12 12 11 10 9 8 8 7 7 6 6 5 4 3 2 1 1 3 4 5 6 6 6 7 7 7 7 8 8 10 10 13 13 13 15 14 15 16 16 16 24 29 32 31 31 31 27 18 17 16 18 16 19 19
15 16 19 20 17 15 12 11 13 12 11 9 8 9 8 8 7 6 5 5 4 3 2 0 1 3 4 5 6 6 6 6 6 7 7 8 9 10 11 12 13 14 13 13 15 16 16 17 23 30 31 32 31 31 28 18 18 17 18 18 19 18
16 15 14 14 16 14 14 12 11 11 9 8 9 7 8 7 6 6 5 5 4 3 1 1 2 4 5 5 6 6 6 6 6 7 7 8 9 10 11 11 13 12 12 12 13 14 15 15 27 30 32 31 31 31 27 16 16 16 17 17 17 17
19 21 20 15 15 15 15 13 10 10 9 7 8 8 7 6 5 5 5 4 4 3 2 2 3 4 4 5 5 5 6 6 6 8 8 8 9 9 9 10 10 12 13 13 13 14 15 16 28 30 30 32 31 32 18 15 17 18 18 18 17 18
19 17 15 16 17 19 14 11 11 10 9 8 6 6 6 6 5 5 6 5 4 4 3 3 3 4 4 4 5 5 5 7 7 7 6 8 10 10 10 10 10 10 12 14 13 14 15 15 22 29 31 30 31 25 15 16 15 16 18 18 18 17
11 13 18 20 18 17 14 14 11 11 9 8 8 7 7 6 5 6 5 5 4 4 4 3 3 4 4 4 4 5 6 6 6 6 6 9 10 11 10 10 10 9 10 13 15 13 15 15 22 31 30 30 29 26 19 16 16 16 17 17 18 17
17 20 20 21 20 14 12 13 11 10 9 8 9 7 6 6 5 6 5 5 4 4 3 3 4 4 4 4 4 4 5 6 6 6 7 7 8 10 10 10 10 10 10 12 14 19 19 15 19 27 28 29 29 25 16 16 14 16 16 17 18 17
19 21 21 22 17 14 14 12 9 9 9 8 7 7 6 6 5 5 5 4 4 3 3 3 3 4 4 4 4 4 4 5 5 6 7 7 7 9 10 10 9 13 13 12 13 11 12 16 16 19 30 29 30 31 20 15 15 16 18 17 16 17
26 27 24 18 14 13 12 11 11 10 8 9 8 8 6 5 6 6 4 3 3 3 4 3 3 4 4 3 4 4 4 4 6 7 6 7 7 8 9 11 12 11 12 13 12 11 13 13 19 20 29 30 30 32 28 15 16 17 17 16 17 17
17 19 16 10 12 12 12 11 10 9 10 9 7 7 6 6 6 5 4 3 3 3 3 4 3 3 2 2 3 4 5 4 5 6 7 6 7 10 10 11 9 11 13 11 11 14 16 18 23 19 24 29 31 31 33 20 17 19 17 17 16 17
19 16 13 11 10 11 11 11 11 10 9 7 9 8 7 7 6 5 4 3 4 4 4 3 2 1 1 2 2 4 6 5 6 7 6 7 8 9 11 11 11 13 12 10 12 13 14 14 13 23 21 29 32 33 31 32 26 30 20 16 17 17
19 14 11 11 9 9 9 10 11 10 9 9 8 8 7 7 6 5 3 4 4 4 3 2 0 0 1 2 3 3 6 6 6 6 5 6 7 8 9 10 11 12 11 13 13 12 12 13 13 20 28 28 34 32 33 31 32 31 19 18 17 17
23 13 12 10 11 8 7 6 10 12 12 9 9 9 8 7 6 5 6 5 4 3 3 1 2 1 1 2 2 4 5 6 5 6 5 6 7 8 9 10 11 10 11 12 13 13 14 17 18 18 23 32 31 33 32 32 32 30 29 19 15 17
16 13 15 11 10 8 7 6 8 17 11 10 9 9 8 8 8 6 6 4 3 3 2 5 4 3 3 3 2 3 3 5 5 4 6 6 6 7 8 10 9 11 13 13 13 15 17 19 15 14 15 20 27 28 31 34 30 28 29 26 20 27
15 13 14 14 10 8 8 7 5 5 9 10 9 9 9 10 9 6 5 4 3 2 5 7 4 3 3 3 3 3 3 3 3 4 4 5 6 7 8 9 10 11 12 13 14 15 17 15 11 15 19 16 17 19 22 22 19 24 25 17 16 20
17 16 14 13 11 9 8 7 7 7 8 9 9 9 9 8 6 8 7 5 4 4 6 6 5 6 3 3 3 4 6 4 4 5 4 5 7 7 8 8 10 10 11 13 13 14 15 13 15 17 15 17 18 18 18 18 17 17 15 17 18 18
15 15 15 12 11 10 9 9 7 9 10 9 9 10 10 8 8 6 6 5 6 7 5 5 4 4 5 6 3 1 3 4 5 5 7 7 7 7 9 8 10 11 9 10 11 13 12 14 15 15 25 23 28 25 22 19 17 16 15 20 29 20
16 17 14 11 11 11 10 10 8 8 8 9 9 9 11 12 9 8 7 6 7 7 6 5 4 4 5 5 7 9 6 5 6 5 6 8 15 19 19 16 11 12 12 11 10 12 13 15 17 30 33 32 32 33 34 31 30 28 23 25 30 20
11 14 14 12 12 11 11 10 10 9 9 9 9 9 9 10 9 8 7 6 6 6 6 5 4 3 3 3 4 4 7 12 8 5 7 11 16 17 20 19 19 20 21 15 10 13 23 26 29 30 31 32 33 33 32 33 32 30 29 27 20 14
15 17 16 13 12 12 10 10 9 9 9 9 9 8 8 9 11 11 7 8 8 7 6 5 3 2 2 1 1 3 4 4 9 16 18 16 15 18 17 16 19 21 20 20 20 18 12 22 28 30 30 31 32 32 31 31 32 31 30 25 22 11
14 11 11 13 12 11 10 11 10 9 9 9 8 8 9 9 9 12 11 8 7 6 7 5 4 2 2 0 1 1 0 2 3 5 11 19 23 21 15 14 17 20 21 21 22 24 22 24 26 29 29 30 30 31 30 30 29 28 30 27 16 13
13 13 12 13 13 13 12 12 10 10 11 9 8 8 9 9 8 11 11 10 9 7 5 4 3 2 1 0 1 1 0 1 2 3 4 7 10 15 18 18 19 20 22 20 23 24 25 26 27 27 29 29 30 30 30 29 22 29 31 25 12 12
17 12 12 14 12 12 11 11 11 10 10 10 10 12 11 9 10 10 7 11 7 7 7 4 4 3 0 1 1 0 1 2 2 2 3 4 6 7 9 11 13 15 20 17 17 22 25 27 27 27 27 29 29 30 29 24 16 19 18 15 12 13
16 13 12 12 11 12 12 10 10 10 10 10 11 11 12 11 8 6 6 6 7 6 6 5 5 2 1 1 0 0 1 3 2 4 3 4 4 5 7 8 9 10 13 20 19 24 24 27 27 26 26 26 28 28 26 17 17 15 15 13 11 11
Wind_Direction
200 197 196 192 189 184 178 166 161 157 154 152 152 161 167 162 157 163 171 186 204 215 238 246 257 261 269 284 291 287 286 289 289 293 294 297 298 296 297 297 297 298 297 295 294 294 293 291 289 290 288 287 284 283 284 284 281 278 276 274 271 272
202 196 189 186 185 179 174 159 146 152 150 145 144 138 140 140 156 164 177 192 201 235 245 254 259 273 286 296 289 286 288 290 295 297 299 296 299 296 297 299 300 301 301 299 298 298 297 295 294 293 289 287 281 281 281 282 283 281 282 279 274 269
199 196 192 185 169 160 152 156 160 148 144 145 148 149 154 157 164 160 174 184 212 233 248 259 268 282 288 282 280 285 289 294 296 295 294 297 295 301 304 303 302 300 299 300 299 299 297 296 296 296 292 289 286 284 283 285 284 283 282 280 276 272
193 179 166 163 163 166 163 160 149 151 153 149 144 142 151 153 161 161 172 192 214 234 252 263 280 284 284 283 290 293 298 299 299 298 300 298 300 305 303 301 302 301 303 302 301 299 297 294 293 295 291 292 294 287 287 287 286 284 282 282 280 277
186 180 178 179 178 170 159 155 157 154 149 145 149 143 153 148 150 149 174 200 220 245 255 270 278 283 282 286 293 298 304 303 301 303 303 305 306 305 301 302 302 302 302 299 298 298 295 295 295 294 291 290 290 290 287 287 283 281 280 281 279 278
165 168 179 181 180 173 171 159 150 147 148 146 142 148 144 140 146 156 181 205 229 242 252 256 262 268 271 290 295 301 302 300 300 304 303 306 305 305 303 301 302 303 301 298 297 295 294 296 296 296 291 291 289 288 288 285 282 279 277 276 278 277
178 189 187 185 180 169 162 160 155 148 147 145 146 141 137 136 148 159 186 207 228 236 238 248 257 262 282 296 303 301 301 302 305 307 308 308 306 304 304 301 301 300 299 296 297 297 295 293 294 297 294 286 290 285 283 284 282 278 277 273 273 273
191 187 188 183 180 174 160 154 151 146 143 145 139 137 140 148 149 169 186 202 216 224 233 244 253 272 302 310 306 304 307 309 309 308 307 308 304 303 298 299 298 295 292 292 293 294 294 295 296 295 291 287 281 285 284 280 280 279 277 274 270 270
196 194 186 185 176 171 165 156 149 145 141 139 140 138 143 150 155 170 183 197 210 222 231 242 262 304 313 316 311 309 309 308 307 305 305 306 301 299 300 297 293 288 287 287 290 291 293 293 290 292 292 290 288 288 280 284 280 276 276 271 267 262
191 188 185 177 176 165 160 155 151 151 150 148 144 140 141 147 155 168 184 190 206 216 232 247 292 326 323 316 312 309 307 304 304 305 303 302 300 299 298 296 293 291 286 286 285 286 291 294 298 296 291 293 288 288 286 278 282 275 272 271 264 263
192 187 181 180 167 168 160 151 144 135 134 136 143 145 150 153 158 175 181 189 196 209 222 263 322 337 323 321 313 308 305 303 301 300 299 296 296 295 291 291 292 294 294 294 301 303 306 303 296 295 296 294 291 287 283 282 273 273 269 268 268 255
188 184 179 173 176 170 161 156 154 154 151 153 152 150 153 153 169 174 182 186 192 197 209 269 316 324 329 316 307 302 300 298 297 294 295 294 293 292 290 291 293 296 308 308 306 304 302 298 296 293 294 294 294 294 290 285 283 281 273 269 264 260
186 180 180 182 179 175 167 159 152 150 150 152 154 156 161 159 168 178 176 183 182 187 193 191 345 341 319 305 299 293 291 294 291 291 290 290 289 290 292 297 301 311 308 307 310 308 303 296 299 297 297 298 297 297 294 291 286 277 278 271 272 260
185 185 187 184 179 172 166 158 155 154 159 157 159 157 157 164 173 173 174 178 172 176 152 129 353 320 301 296 287 285 287 285 284 285 288 288 293 295 298 302 307 306 308 306 304 304 297 294 297 300 299 300 299 299 296 292 287 283 278 277 270 269
190 189 187 178 176 176 172 151 151 163 158 157 156 147 160 170 171 168 170 171 168 161 139 108 315 296 285 281 279 281 278 279 283 286 291 295 299 302 305 309 306 304 307 301 299 297 295 290 296 301 301 301 302 302 301 296 288 283 277 273 271 267
192 189 184 180 176 169 149 155 148 141 139 136 142 155 163 165 166 167 170 165 163 144 134 127 256 271 275 274 277 278 283 283 286 293 295 299 306 306 306 306 303 303 300 299 297 296 295 291 296 301 304 307 306 306 305 297 294 288 285 283 282 271
183 176 168 169 165 153 141 133 131 126 130 146 152 161 159 163 159 167 166 161 154 140 147 189 250 264 269 278 277 280 281 286 294 302 309 313 312 312 311 308 307 299 297 294 293 292 289 289 296 304 308 310 310 309 309 301 298 296 295 294 293 292
178 177 178 160 145 140 139 135 135 130 140 144 152 154 162 159 162 162 160 160 153 152 164 191 240 253 269 278 282 285 296 305 311 315 315 311 307 304 299 299 295 295 298 294 292 292 289 288 301 307 309 313 314 314 311 304 301 301 297 293 290 284
178 168 147 142 139 137 139 133 131 134 139 149 155 156 159 161 167 167 165 164 154 161 175 212 230 254 269 271 285 298 311 321 318 317 318 309 310 306 306 296 293 291 292 296 293 290 293 289 300 310 314 315 315 316 311 311 306 300 296 292 292 289
137 139 139 134 134 134 132 136 141 142 145 150 155 161 164 168 174 170 164 160 161 174 187 204 227 248 265 274 285 304 311 309 305 308 314 311 309 306 299 295 292 285 285 291 295 295 293 297 306 312 315 317 317 319 316 311 304 297 297 297 294 291
143 131 134 131 134 147 139 138 140 143 147 153 160 163 162 174 177 169 162 160 165 183 193 210 226 241 258 276 288 297 304 308 311 305 305 298 297 295 295 292 291 291 293 295 294 297 303 294 300 308 316 319 320 320 316 311 304 300 297 295 293 289
124 135 147 152 147 139 143 142 144 143 145 153 154 159 174 178 166 150 139 147 167 191 206 221 220 234 241 275 294 293 291 301 302 308 307 302 298 295 297 291 290 301 304 302 298 294 300 306 305 309 318 321 321 321 318 309 302 297 295 293 291 292
148 151 153 143 137 142 146 147 143 146 149 149 154 175 173 150 139 131 136 150 185 204 215 232 221 233 251 252 279 292 302 304 307 306 302 301 299 292 295 297 303 294 297 300 293 304 308 306 316 314 319 322 322 320 320 309 305 301 297 298 295 294
128 107 105 129 137 142 148 150 142 142 147 154 166 163 142 133 134 127 132 178 203 209 225 222 237 241 245 281 297 312 310 307 303 297 301 298 298 299 295 302 295 301 298 291 307 319 317 314 316 318 321 325 324 323 323 321 311 309 305 302 297 296
145 145 140 146 146 149 155 148 138 144 152 153 158 140 139 133 127 129 151 189 210 219 223 231 214 247 259 305 315 316 310 313 313 310 306 300 303 300 304 305 298 302 300 305 319 318 317 313 312 325 328 329 329 327 326 323 319 316 313 304 298 299
123 130 140 145 148 152 158 157 140 149 145 150 139 134 130 124 123 130 159 198 221 214 223 210 183 224 354 327 329 328 308 315 309 306 299 303 304 304 306 307 307 305 305 322 321 318 318 323 322 326 331 331 327 326 327 326 323 320 315 309 302 299
147 136 136 145 149 151 149 170 140 140 141 141 139 142 135 130 122 132 177 201 206 206 205 162 85 42 31 349 349 334 317 312 318 311 312 308 306 304 304 304 305 305 325 323 324 321 323 330 329 328 327 325 329 331 330 330 327 324 321 313 303 295
105 128 136 142 150 145 153 152 162 148 146 135 141 136 130 125 124 158 187 196 203 199 173 94 73 60 35 9 338 315 289 289 298 295 300 302 301 303 294 301 300 325 332 326 326 328 326 325 317 324 327 330 332 331 331 332 330 326 322 318 308 304
140 145 142 142 154 148 149 144 146 120 129 137 137 128 124 122 138 157 165 185 198 163 66 59 46 37 51 14 341 310 289 292 276 287 289 296 305 301 301 294 320 329 329 330 327 327 326 316 317 331 332 329 335 335 333 335 330 328 325 324 321 322
147 146 146 145 153 152 146 146 138 132 130 134 131 123 123 134 154 155 167 172 181 92 67 66 32 25 11 16 357 321 321 305 308 304 294 309 306 296 296 314 327 330 330 329 325 325 323 318 334 334 332 339 337 336 336 334 332 331 331 333 334 333
149 148 145 141 145 145 145 143 137 141 141 135 130 133 135 143 153 152 149 159 155 93 80 69 54 34 10 339 344 271 239 266 290 298 305 306 291 302 322 319 328 330 326 326 325 326 315 330 338 336 339 340 341 342 343 341 338 334 337 340 344 336
141 144 140 139 142 145 145 144 145 146 140 133 134 143 142 143 144 148 138 154 132 110 90 71 55 32 23 359 344 336 327 230 260 304 315 315 329 333 334 338 334 336 336 329 334 333 330 334 334 336 341 344 345 347 350 350 346 341 344 349 350 342
145 129 134 141 146 146 148 146 150 144 139 141 151 155 151 149 140 135 141 136 116 108 100 97 80 66 35 1 344 342 335 332 328 313 328 338 339 337 336 339 341 343 343 341 334 333 336 337 340 343 345 347 348 351 354 355 350 347 350 354 357 349
158 154 149 148 148 147 146 142 147 145 142 150 160 159 157 161 144 137 148 140 141 107 103 101 101 95 72 33 351 321 337 348 332 326 326 336 347 342 338 339 343 346 346 346 346 342 330 344 347 348 350 350 351 354 356 358 352 353 354 351 353 3
156 147 142 143 145 142 144 140 145 143 147 154 158 158 155 164 139 132 141 151 126 115 106 105 98 84 86 80 327 305 334 355 332 325 315 325 330 335 339 347 351 351 348 345 347 347 348 351 350 351 352 353 354 356 356 358 355 355 358 356 2 6
133 136 140 141 145 143 142 141 145 149 154 151 156 155 154 151 147 140 152 145 138 119 117 112 111 108 117 245 261 252 287 265 255 266 290 306 316 332 337 341 348 349 346 344 346 345 350 354 354 353 354 355 357 358 357 358 353 355 1 5 353 355
130 134 142 142 139 142 144 140 146 150 151 154 151 142 133 143 133 142 132 130 123 117 116 115 109 124 138 196 231 245 318 295 264 275 289 297 308 316 317 317 325 336 341 342 343 345 352 355 354 353 353 356 358 360 356 356 4 359 347 348 351 351
134 136 139 141 143 141 131 135 143 147 150 149 152 142 140 141 148 143 143 132 120 109 113 110 120 124 140 185 185 320 301 295 292 305 296 300 299 290 298 309 320 319 318 338 344 348 351 354 352 352 353 353 358 2 1 3 359 351 343 337 337 341